Regional Weather Roundup
Issued by NWS

Home | Current Version | Previous Version | Text Only | Print | Product List | Glossary Off
Versions: 1 2 3 4 5 6 7 8 9 10 11 12 13 14 15 16 17 18 19 20 21 22 23 24 25 26 27 28 29 30 31 32 33 34 35 36 37 38 39 40 41 42 43 44 45 46 47 48 49 50

000
ASUS45 KBOU 080507
RWRCO

WEATHER ROUNDUP FOR COLORADO
NATIONAL WEATHER SERVICE DENVER/BOULDER CO
1000 PM MST SUN FEB 07 2016

NOTE: "FAIR" INDICATES FEW OR NO CLOUDS BELOW 12000 FEET WITH NO
SIGNIFICANT WEATHER AND/OR OBSTRUCTIONS TO VISIBILITY.

COZ001>005-013-030-031-080600-
...NORTHWEST COLORADO...

CITY           SKY/WX    TMP DP  RH WIND       PRES   REMARKS
CRAIG          CLOUDY    -1  -5  82 CALM      30.53S
HAYDEN         CLOUDY    16  10  79 E3        30.50S
MEEKER         CLOUDY     8   4  83 NE3       30.52S
MOUNT WERNER   NOT AVBL
STEAMBOAT SPGS CLOUDY    16  12  82 CALM      30.50S
WALDEN         CLOUDY    23  12  63 S14       30.44R WCI  11
$$

COZ006>008-011-080600-
...WEST CENTRAL VALLEYS...

CITY           SKY/WX    TMP DP  RH WIND       PRES   REMARKS
GRAND JUNCTION CLOUDY    17  14  88 E5        30.54S WCI  10
MONTROSE       CLOUDY    16  11  80 SE8       30.55S WCI   5
EAGLE          CLEAR     21  18  86 E7        30.53S WCI  13
RIFLE          CLOUDY    15   9  76 SE3       30.54S
DELTA          CLOUDY    24  19  83 NE5       30.56R WCI  18
NUCLA          CLOUDY    27  19  74 E5        30.53S WCI  21
$$

COZ017>023-064>068-080600-
...SOUTHWEST COLORADO...

CITY           SKY/WX    TMP DP  RH WIND       PRES   REMARKS
DURANGO        CLOUDY    18  12  77 CALM      30.42R
CORTEZ         CLOUDY    28  18  66 E8        30.41S WCI  20
PAGOSA SPRINGS CLOUDY    17  14  89 CALM      30.42R
TELLURIDE      NOT AVBL
WOLF CREEK PAS CLOUDY    27   0  31 NE18G28   30.48S WCI  13
$$

COZ009-010-012-014-032>034-037-058>063-080600-
...CENTRAL COLORADO...

CITY           SKY/WX    TMP DP  RH WIND       PRES   REMARKS
ASPEN          CLOUDY    14   8  77 S7        30.50S WCI   4
BUENA VISTA    CLOUDY    32  10  40 NW17G29   30.34S WCI  21
COPPER MTN     CLOUDY    18   9  68 W24G37    30.43S WCI   0
BERTHOUD PASS  HAZE       9  -4  56 NW37G46   30.33S VSB 3/4 WCI -16
COTTONWOOD PAS CLOUDY    34   1  25 W9G28     30.36R WCI  26
GUNNISON       CLOUDY     0  -4  85 CALM      30.54S
KREMMLING      CLOUDY    12   5  73 CALM      30.49S
LEADVILLE      CLOUDY    18   6  59 N10       30.45F WCI   6
MONARCH PASS   CLOUDY    12   7  79 MISG      30.52S
SALIDA         NOT AVBL
SUNLIGHT       CLOUDY    21  14  73 W7          N/A  WCI  13
WILKERSON PASS CLOUDY    21   5  49 N21G48    30.32S WCI   6
$$

COZ069>075-080600-
...SAN LUIS VALLEY/SANGRE DE CRISTO MOUNTAINS...

CITY           SKY/WX    TMP DP  RH WIND       PRES   REMARKS
ALAMOSA        CLOUDY    17  12  80 S6        30.40R WCI   9
LA VETA PASS   CLOUDY    28   5  37 MISG      30.36S
SAGUACHE       CLOUDY    32  12  43 N15G21    30.42R WCI  22
$$

COZ035-036-038>040-080600-
...NORTHERN COLORADO FRONT RANGE...

CITY           SKY/WX    TMP DP  RH WIND       PRES   REMARKS
DENVER INTL AP CLOUDY    15  10  80 SE17      30.37S WCI  -1
DMNS CITY PARK   N/A     24  17  74 SE12      30.39S WCI  13
AURORA         PTCLDY    19  15  83 SE10      30.38S WCI   7
FRONT RANGE AP NOT AVBL
ERIE MUNI ARPT CLOUDY    20  18  93 CALM      30.39S
BOULDER MUN AP CLOUDY    27  21  80 S3        30.38S
CENTENNIAL     CLOUDY    20  16  84 SE12      30.37R WCI   8
BROOMFIELD     PTCLDY    25  19  80 SE6       30.37S WCI  18
FORT COLLINS   CLOUDY    19  16  86 S7        30.39S WCI  10
LONGMONT       CLOUDY    23  18  83 S5        30.41S WCI  17
$$

COZ041-046-047-076>085-087-088-080600-
...PIKES PEAK/PALMER DIVIDE AND SOUTHERN FOOTHILLS...

CITY           SKY/WX    TMP DP  RH WIND       PRES   REMARKS
COLO. SPRINGS  CLOUDY    23  19  85 S6        30.39R WCI  16
A. F. ACADEMY  CLOUDY    23  21  93 S6        30.36R WCI  16
SCHRIEVER AFB  CLOUDY    23  20  88 NW5       30.39R WCI  17
ELLICOTT       NOT AVBL
FALCON         CLOUDY    21  19  94 CALM      30.37R
FORT CARSON    CLOUDY    23  20  88 S5        30.38R WCI  17
LIMON          CLOUDY    14   8  77 NW8       30.38R WCI   3
MONUMENT HILL  CLOUDY    19  18  93 SE6       30.36R FOG     WCI  11
TRINIDAD       CLOUDY    19  15  84 W3        30.39R
$$

COZ042>045-048>051-090-091-080600-
...NORTHEAST COLORADO...

CITY           SKY/WX    TMP DP  RH WIND       PRES   REMARKS
GREELEY ARPT   CLOUDY    18  10  73 NW9       30.40S WCI   6
AKRON          CLOUDY    26  15  63 NW21G30   30.36R WCI  12
BURLINGTON     CLOUDY    28  15  58 NW17      30.35R WCI  16
WRAY           CLEAR     28  14  57 NW17G26   30.34R WCI  15
STERLING       CLOUDY    28  14  54 N20G26    30.35S WCI  15
HOLYOKE        CLEAR     32  16  51 NW21G30   30.32S WCI  20
FORT MORGAN    CLOUDY    18  11  76 W12       30.39S WCI   5
$$

COZ086-089-092>099-080600-
...SOUTHEAST COLORADO...

CITY           SKY/WX    TMP DP  RH WIND       PRES   REMARKS
PUEBLO         CLOUDY    30  21  69 CALM      30.43R
LA JUNTA       PTCLDY    26  20  77 NW8       30.43S WCI  18
LAMAR          CLOUDY    31  18  58 NW10      30.41R WCI  22
SPRINGFIELD      N/A     22  16  78 W12       30.39S WCI  10
$$



USA.gov is the U.S. government's official web portal to all federal, state and local government web resources and services.